Location: Newark
(52.4787°S, 179.0532°W)
Time: 10:22:26
(UTC+00:00)

Vanguard 2 - Visible Passes

Search period start: 13 November 2019 00:00
Search period end: 23 November 2019 00:00
Orbit: 554 x 2937 km, 32.9° (Epoch: 12 November)

Date Brightness Start Highest point End Pass type
(mag) Time Alt. Az. Time Alt. Az. Time Alt. Az.
13 Nov 10.6 09:45:03 10° NNW 09:55:30 27° NNE 10:08:22 10° ENE visible
13 Nov 10.5 11:51:33 10° NW 12:04:51 37° N 12:20:04 10° ENE visible
13 Nov 10.7 14:00:51 10° WNW 14:14:55 33° NNW 14:29:02 10° NE visible
14 Nov 10.8 07:59:34 10° NNE 08:04:56 14° NE 08:11:06 10° ENE visible
14 Nov 10.5 10:01:53 10° NNW 10:12:46 30° NNE 10:26:25 10° ENE visible
14 Nov 10.5 12:09:02 10° WNW 12:22:21 37° N 12:37:35 10° ENE visible
14 Nov 10.8 14:18:48 10° WNW 14:32:19 30° NNW 14:45:53 10° NNE visible
15 Nov 10.7 08:14:51 10° N 08:21:55 18° NE 08:30:33 10° ENE visible
15 Nov 10.4 10:18:56 10° NW 10:30:07 32° NNE 10:44:18 10° ENE visible
15 Nov 10.5 12:26:38 10° WNW 12:39:51 36° N 12:54:57 10° NE visible
15 Nov 10.9 14:36:57 10° WNW 14:49:38 27° NNW 15:02:24 10° NNE visible
16 Nov 10.5 08:30:59 10° N 08:39:00 21° NE 08:49:13 10° ENE visible
16 Nov 10.4 10:36:11 10° NW 10:47:32 34° NNE 11:02:02 10° ENE visible
16 Nov 10.6 12:44:21 10° WNW 12:57:21 34° N 13:12:08 10° NE visible
16 Nov 11.0 14:55:24 10° WNW 15:06:54 22° NNW 15:18:30 10° N visible
17 Nov 10.4 08:47:34 10° NNW 08:56:10 25° NNE 09:07:30 10° ENE visible
17 Nov 10.4 10:53:35 10° NW 11:05:00 35° N 11:19:38 10° ENE visible
17 Nov 10.6 13:02:12 10° WNW 13:14:49 31° NNW 13:29:06 10° NE visible
18 Nov 10.3 09:04:29 10° NNW 09:13:27 27° NNE 09:25:31 10° ENE visible
18 Nov 10.4 11:11:06 10° WNW 11:22:30 34° N 11:37:05 10° NE visible
18 Nov 10.7 13:20:13 10° WNW 13:32:15 28° NNW 13:45:46 10° NNE visible
19 Nov 10.3 09:21:36 10° NW 09:30:48 30° NNE 09:43:23 10° ENE visible
19 Nov 10.4 11:28:46 10° WNW 11:40:01 33° N 11:54:22 10° NE visible
19 Nov 10.8 13:38:28 10° WNW 13:49:39 24° NNW 14:02:05 10° NNE visible
20 Nov 10.3 09:38:55 10° NW 09:48:14 31° NNE 10:01:05 10° ENE visible
20 Nov 10.5 11:46:32 10° WNW 11:57:33 31° N 12:11:27 10° NE visible
20 Nov 10.9 13:57:05 10° WNW 14:06:59 20° NNW 14:17:52 10° N visible
21 Nov 10.2 09:56:22 10° NW 10:05:43 31° N 10:18:38 10° ENE visible
21 Nov 10.5 12:04:26 10° WNW 12:15:04 28° NNW 12:28:16 10° NNE visible
21 Nov 11.1 14:16:24 10° WNW 14:24:17 16° NW 14:32:48 10° N visible
22 Nov 10.2 08:07:45 10° NNW 08:14:46 24° NNE 08:24:26 10° ENE visible
22 Nov 10.3 10:13:57 10° NW 10:23:14 30° N 10:36:01 10° NE visible
22 Nov 10.6 12:22:34 10° WNW 12:32:34 24° NNW 12:44:45 10° NNE visible
22 Nov 11.2 14:37:46 10° NW 14:41:33 11° NW 14:45:27 10° NNW visible
